User: anonymous   Login
Location: Newark
(51.3318°N, 0.0053°E)
Time: 07:02:21
(UTC+00:00)
Language:

MOZHAYETS 4 - Orbit

View from above orbital plane
View from above orbital plane
View from above satellite
View from above satellite

Ground track
Ground track

The orbit data is extracted from the following two-line orbital elements,

1 27939U 03042A   22178.89908829  .00000497  00000-0  96689-4 0  9994
2 27939  98.1926 319.6173 0013216 169.4582 190.6909 14.67372218  2574
Epoch (UTC): 27 June 2022 21:34:41
Eccentricity: 0.0013216
inclination: 98.1926°
perigee height: 660 km
apogee height: 679 km
right ascension of ascending node: 319.6173°
argument of perigee: 169.4582°
revolutions per day: 14.67372218
mean anomaly at epoch: 190.6909°
orbit number at epoch: 257

The dashed part of the orbit path shows where the satellite is in the earth's shadow,  

DLR